TimeCDT,TemperatureF,Dew PointF,Humidity,Sea Level PressureIn,VisibilityMPH,Wind Direction,Wind SpeedMPH,Gust SpeedMPH,PrecipitationIn,Events,Conditions,WindDirDegrees,DateUTC
12:15 AM,73.8,23.0,15,29.85,10.0,South,19.6,25.3,N/A,,Clear,180,2014-05-04 05:15:00
12:35 AM,73.4,23.0,15,29.85,10.0,South,17.3,21.9,N/A,,Clear,190,2014-05-04 05:35:00
12:55 AM,72.1,23.0,16,29.86,10.0,SSW,13.8,19.6,N/A,,Clear,200,2014-05-04 05:55:00
1:15 AM,70.0,23.5,17,29.87,10.0,SW,8.1,-,N/A,,Clear,220,2014-05-04 06:15:00
1:35 AM,70.0,22.8,17,29.87,10.0,SSW,13.8,-,N/A,,Clear,200,2014-05-04 06:35:00
1:55 AM,70.0,22.6,17,29.87,10.0,SSW,11.5,-,N/A,,Clear,210,2014-05-04 06:55:00
2:15 AM,67.8,23.0,18,29.86,10.0,SSW,11.5,-,N/A,,Clear,210,2014-05-04 07:15:00
2:35 AM,65.3,23.5,20,29.86,10.0,SSW,6.9,-,N/A,,Clear,210,2014-05-04 07:35:00
2:55 AM,63.5,23.2,21,29.85,10.0,West,3.5,-,N/A,,Clear,270,2014-05-04 07:55:00
3:15 AM,63.0,24.3,23,29.85,10.0,NNE,5.8,-,N/A,,Clear,20,2014-05-04 08:15:00
3:35 AM,60.3,25.2,26,29.85,10.0,Calm,Calm,-,N/A,,Clear,0,2014-05-04 08:35:00
3:55 AM,59.9,25.9,27,29.85,10.0,Calm,Calm,-,N/A,,Clear,0,2014-05-04 08:55:00
4:15 AM,62.8,23.0,22,29.85,10.0,Calm,Calm,-,N/A,,Clear,0,2014-05-04 09:15:00
4:35 AM,55.6,27.0,33,29.85,10.0,NNE,3.5,-,N/A,,Clear,20,2014-05-04 09:35:00
4:55 AM,55.9,27.5,34,29.85,10.0,Calm,Calm,-,N/A,,Clear,0,2014-05-04 09:55:00
5:15 AM,65.5,21.2,18,29.85,10.0,WSW,3.5,-,N/A,,Clear,240,2014-05-04 10:15:00
5:35 AM,63.1,23.2,22,29.85,10.0,WSW,4.6,-,N/A,,Clear,250,2014-05-04 10:35:00
5:55 AM,68.5,19.4,15,29.84,10.0,SW,11.5,16.1,N/A,,Clear,230,2014-05-04 10:55:00
6:15 AM,70.7,18.1,14,29.84,10.0,SW,13.8,18.4,N/A,,Clear,230,2014-05-04 11:15:00
6:35 AM,71.2,17.1,13,29.84,10.0,SW,18.4,26.5,N/A,,Clear,230,2014-05-04 11:35:00
6:55 AM,71.1,16.7,13,29.84,10.0,WSW,16.1,24.2,N/A,,Clear,240,2014-05-04 11:55:00
7:15 AM,71.6,15.8,12,29.85,10.0,SW,18.4,26.5,N/A,,Clear,230,2014-05-04 12:15:00
7:35 AM,72.0,16.2,12,29.85,10.0,SW,18.4,24.2,N/A,,Clear,230,2014-05-04 12:35:00
7:55 AM,72.5,16.3,12,29.85,10.0,SW,17.3,25.3,N/A,,Clear,230,2014-05-04 12:55:00
8:15 AM,73.6,16.9,12,29.86,10.0,WSW,17.3,21.9,N/A,,Clear,240,2014-05-04 13:15:00
8:35 AM,75.2,16.9,11,29.86,10.0,WSW,16.1,23.0,N/A,,Clear,240,2014-05-04 13:35:00
8:55 AM,77.2,16.5,10,29.86,10.0,SW,12.7,-,N/A,,Clear,230,2014-05-04 13:55:00
9:15 AM,79.7,16.3,9,29.87,10.0,WSW,13.8,-,N/A,,Clear,240,2014-05-04 14:15:00
9:35 AM,81.9,15.4,8,29.87,10.0,WSW,15.0,-,N/A,,Clear,240,2014-05-04 14:35:00
9:55 AM,84.2,14.9,8,29.87,10.0,WSW,15.0,-,N/A,,Clear,240,2014-05-04 14:55:00
10:15 AM,86.5,15.1,7,29.87,10.0,SW,16.1,20.7,N/A,,Clear,230,2014-05-04 15:15:00
10:35 AM,87.8,14.0,6,29.87,10.0,WSW,15.0,25.3,N/A,,Clear,240,2014-05-04 15:35:00
10:55 AM,88.9,14.5,6,29.87,10.0,SW,19.6,24.2,N/A,,Clear,220,2014-05-04 15:55:00
11:15 AM,90.5,14.7,6,29.87,10.0,SW,15.0,26.5,N/A,,Clear,220,2014-05-04 16:15:00
11:35 AM,91.0,16.2,6,29.86,10.0,SW,15.0,25.3,N/A,,Clear,230,2014-05-04 16:35:00
11:55 AM,92.5,15.4,6,29.86,10.0,SW,21.9,29.9,N/A,,Clear,220,2014-05-04 16:55:00
12:15 PM,93.0,15.8,6,29.85,10.0,SW,21.9,27.6,N/A,,Clear,220,2014-05-04 17:15:00
12:35 PM,94.1,14.9,5,29.84,10.0,SW,20.7,32.2,N/A,,Clear,230,2014-05-04 17:35:00
12:55 PM,95.4,14.9,5,29.83,10.0,SW,21.9,27.6,N/A,,Clear,220,2014-05-04 17:55:00
1:15 PM,96.3,13.6,5,29.82,10.0,SW,23.0,32.2,N/A,,Clear,220,2014-05-04 18:15:00
1:35 PM,97.0,12.4,5,29.81,10.0,WSW,24.2,33.4,N/A,,Clear,240,2014-05-04 18:35:00
1:55 PM,98.2,11.8,4,29.80,10.0,SW,24.2,32.2,N/A,,Clear,220,2014-05-04 18:55:00
2:15 PM,98.2,11.3,4,29.79,10.0,SW,18.4,34.5,N/A,,Clear,220,2014-05-04 19:15:00
2:35 PM,99.1,11.3,4,29.78,10.0,SSW,20.7,34.5,N/A,,Clear,210,2014-05-04 19:35:00
2:55 PM,99.0,10.2,4,29.78,10.0,SSW,25.3,31.1,N/A,,Clear,210,2014-05-04 19:55:00
3:15 PM,100.2,10.4,4,29.77,10.0,SW,21.9,32.2,N/A,,Clear,230,2014-05-04 20:15:00
3:35 PM,99.5,9.5,4,29.77,10.0,SW,25.3,38.0,N/A,,Clear,220,2014-05-04 20:35:00
3:55 PM,99.0,9.1,4,29.76,10.0,SW,18.4,34.5,N/A,,Clear,230,2014-05-04 20:55:00
4:15 PM,99.3,9.3,4,29.75,10.0,SSW,21.9,36.8,N/A,,Clear,210,2014-05-04 21:15:00
4:35 PM,99.3,9.5,4,29.74,10.0,SSW,25.3,31.1,N/A,,Clear,210,2014-05-04 21:35:00
4:55 PM,99.5,8.1,4,29.74,10.0,SW,25.3,32.2,N/A,,Clear,230,2014-05-04 21:55:00
5:15 PM,99.3,8.2,4,29.73,10.0,SW,20.7,34.5,N/A,,Clear,220,2014-05-04 22:15:00
5:35 PM,99.0,8.1,4,29.72,10.0,SSW,21.9,31.1,N/A,,Clear,210,2014-05-04 22:35:00
5:55 PM,98.6,7.9,4,29.72,10.0,SSW,24.2,29.9,N/A,,Clear,200,2014-05-04 22:55:00
6:15 PM,98.2,7.7,4,29.72,10.0,SW,21.9,28.8,N/A,,Clear,220,2014-05-04 23:15:00
6:35 PM,97.3,7.9,4,29.71,10.0,SSW,21.9,28.8,N/A,,Clear,210,2014-05-04 23:35:00
6:55 PM,96.8,8.8,4,29.71,10.0,SSW,21.9,28.8,N/A,,Clear,200,2014-05-04 23:55:00
7:15 PM,95.7,9.5,4,29.70,10.0,South,24.2,31.1,N/A,,Clear,190,2014-05-05 00:15:00
7:35 PM,95.4,10.4,4,29.70,10.0,South,18.4,23.0,N/A,,Clear,190,2014-05-05 00:35:00
7:55 PM,93.2,9.3,4,29.71,10.0,South,16.1,24.2,N/A,,Clear,190,2014-05-05 00:55:00
8:15 PM,91.2,10.6,5,29.72,10.0,South,15.0,-,N/A,,Clear,190,2014-05-05 01:15:00
8:35 PM,88.0,12.7,6,29.72,10.0,South,13.8,-,N/A,,Clear,180,2014-05-05 01:35:00
8:55 PM,86.5,11.3,6,29.72,10.0,South,16.1,-,N/A,,Clear,180,2014-05-05 01:55:00
9:15 PM,86.0,10.2,6,29.73,10.0,South,16.1,21.9,N/A,,Clear,180,2014-05-05 02:15:00
9:35 PM,85.3,9.3,6,29.73,10.0,South,18.4,26.5,N/A,,Clear,180,2014-05-05 02:35:00
9:55 PM,84.6,9.3,6,29.74,10.0,South,17.3,24.2,N/A,,Clear,180,2014-05-05 02:55:00
10:15 PM,82.0,10.6,7,29.75,10.0,South,16.1,21.9,N/A,,Clear,180,2014-05-05 03:15:00
10:35 PM,81.5,10.4,7,29.75,10.0,South,19.6,25.3,N/A,,Clear,180,2014-05-05 03:35:00
10:55 PM,81.5,10.4,7,29.75,10.0,South,21.9,27.6,N/A,,Clear,180,2014-05-05 03:55:00
11:15 PM,80.2,10.6,7,29.75,10.0,South,20.7,24.2,N/A,,Clear,180,2014-05-05 04:15:00
11:35 PM,79.7,10.0,7,29.76,10.0,SSW,19.6,26.5,N/A,,Clear,200,2014-05-05 04:35:00
11:55 PM,79.2,9.3,7,29.75,10.0,SSW,18.4,21.9,N/A,,Clear,200,2014-05-05 04:55:00